RH
17 15 16 21 36 45 84 83 95 100 100 100 100 100 95 100 100 100 100 100 100 100 100 99 88 89 90 92 95 97 97 100 100 100 100 100 100 100 100 84 79 86 88
16 17 16 17 21 34 74 96 98 100 100 100 100 100 100 100 100 97 100 100 100 100 94 100 100 100 100 100 100 100 100 100 100 100 100 100 100 100 85 79 86 85 87
15 18 17 16 16 17 70 90 100 100 94 100 100 100 99 100 100 100 100 100 100 100 100 100 100 100 100 100 100 100 100 100 100 100 100 100 97 79 93 83 82 87 93
18 18 18 17 18 16 45 58 100 100 100 100 100 100 100 100 100 100 100 100 100 100 100 100 100 100 100 100 100 99 94 98 100 100 100 98 92 100 92 97 96 88 98
20 21 21 19 19 18 18 35 89 100 100 100 100 100 100 100 100 100 100 100 100 100 100 100 98 82 89 100 99 99 100 99 86 97 98 89 96 92 100 99 100 100 100
20 22 24 21 21 19 18 18 58 99 100 100 100 100 100 100 100 100 100 100 100 100 100 100 100 95 82 79 78 86 100 98 94 99 95 84 76 75 93 100 100 100 100
21 21 21 20 19 19 19 19 32 73 99 100 100 100 100 100 100 100 100 100 100 100 100 100 100 100 98 76 61 79 78 80 75 81 79 92 100 100 100 100 100 100 100
23 23 22 19 19 18 17 17 22 44 75 97 100 100 100 100 100 100 100 100 100 100 100 100 100 100 100 100 98 86 87 89 96 96 100 100 100 100 100 100 100 100 100
23 22 25 22 19 20 20 21 20 21 36 84 100 100 100 100 100 100 100 100 89 100 100 100 99 100 99 100 100 100 100 100 100 100 100 100 100 100 100 100 100 100 100
24 26 26 27 21 18 23 27 21 22 22 22 31 84 100 100 100 100 100 100 100 100 100 100 100 100 100 100 100 100 100 100 100 100 100 100 100 100 100 100 100 100 100
25 24 26 29 26 22 22 22 25 24 23 20 21 22 50 99 100 100 100 100 100 100 100 100 100 100 100 100 100 100 100 100 100 100 100 100 100 100 100 100 100 100 96
27 26 25 26 26 26 19 19 22 23 23 23 21 20 22 23 31 69 100 100 100 100 100 100 100 100 100 100 100 100 100 100 100 100 100 100 100 100 100 100 100 78 54
28 33 29 25 26 28 28 24 19 18 19 20 22 23 22 20 21 22 23 25 36 49 60 78 91 98 100 100 100 100 100 100 100 100 100 100 100 97 84 61 41 42 91
26 28 30 33 30 26 26 29 28 24 20 18 18 19 20 20 21 20 20 20 20 21 21 23 26 32 40 58 72 78 87 82 71 54 48 44 42 44 38 32 48 73 74
29 28 30 30 29 29 27 26 26 26 23 20 19 17 17 16 17 17 18 19 20 20 19 20 20 20 21 24 25 27 28 30 33 41 36 33 52 49 70 42 67 74 92
29 28 27 26 26 27 27 25 23 22 22 20 18 17 16 14 15 14 14 14 14 16 17 19 20 20 23 26 26 26 26 24 22 23 41 49 66 54 98 50 86 100 100
26 24 23 22 22 21 22 22 22 21 20 19 18 16 16 14 13 13 12 14 16 17 18 18 19 20 19 19 19 19 21 20 24 34 49 76 77 30 29 64 86 100 100
25 21 20 20 19 19 19 20 20 20 20 20 19 18 16 14 13 13 13 14 14 16 16 18 18 17 17 18 18 17 18 20 28 28 26 22 23 36 56 44 62 83 98
24 20 20 18 19 19 20 21 21 21 20 19 18 18 17 16 15 15 16 17 17 17 16 16 16 16 17 17 16 17 18 21 21 20 20 22 22 24 39 53 75 82 79
22 19 21 22 22 23 23 21 21 20 19 17 16 16 16 16 16 16 16 16 17 18 18 18 17 18 19 18 17 17 20 22 21 23 23 23 25 34 53 72 100 86 92
27 26 26 24 24 24 25 25 23 23 22 19 18 16 16 15 15 15 16 18 18 18 18 18 18 18 19 20 18 19 21 24 24 22 26 34 40 58 61 75 93 99 97
29 35 38 38 37 38 37 32 26 27 24 23 20 18 16 15 15 15 16 17 18 19 20 20 19 20 20 21 20 20 23 24 25 31 39 53 58 72 88 96 98 100 100
51 51 50 54 62 57 45 47 43 36 35 28 24 22 20 20 20 19 18 18 18 20 21 22 22 23 23 24 24 25 26 28 34 42 62 71 79 91 100 100 100 100 86
50 58 62 69 67 59 58 62 58 45 42 39 35 29 28 26 25 24 25 25 24 23 25 26 26 26 27 26 27 32 33 42 62 76 88 85 100 100 100 100 89 75 74
51 61 67 68 67 71 73 72 67 55 51 47 44 39 33 31 31 31 31 32 32 30 28 28 27 28 31 33 41 48 67 84 88 84 100 100 100 100 81 87 79 73 68
72 73 74 73 71 69 70 64 68 67 62 59 57 50 45 39 46 49 46 44 46 44 43 40 43 53 53 50 67 68 76 84 100 100 100 100 82 92 94 78 79 72 67
Wind_Speed
97 99 99 100 100 95 76 73 63 69 69 72 64 62 60 60 60 61 63 66 66 65 66 68 67 67 67 69 68 67 66 67 69 69 69 70 70 69 71 72 71 72 75
95 97 99 99 100 98 79 78 66 59 71 72 68 55 55 53 53 56 57 61 62 65 67 66 66 68 69 70 70 69 70 70 67 65 67 68 69 72 75 75 76 76 78
92 93 97 99 98 97 86 85 88 66 58 62 72 66 60 62 59 60 56 53 56 62 66 68 66 65 66 67 67 67 67 66 66 66 67 68 75 77 74 78 80 81 80
91 92 93 98 98 96 100 96 92 87 68 68 63 72 73 70 68 64 61 57 56 57 60 65 70 73 73 73 72 71 71 70 71 70 69 73 73 79 82 82 86 86 84
88 87 91 96 100 98 98 101 95 93 88 75 65 75 72 71 73 71 66 61 64 65 64 64 70 72 75 76 74 74 74 74 75 77 74 76 76 79 82 84 85 84 88
87 87 90 97 99 100 99 100 102 100 97 95 92 79 71 74 77 80 81 79 76 69 69 67 69 72 72 74 75 74 74 76 74 76 81 81 81 85 84 87 88 90 89
85 87 92 95 99 101 100 98 103 104 101 99 98 94 90 87 82 80 84 83 80 78 78 77 78 76 76 79 74 77 79 80 78 81 82 83 84 82 84 90 90 93 91
82 84 87 92 100 101 101 100 99 102 105 104 103 100 99 99 93 85 85 83 79 81 84 86 84 82 80 81 79 78 79 79 82 83 85 83 85 89 90 91 96 94 97
82 86 87 90 94 97 97 96 99 99 101 106 108 106 105 102 98 101 96 89 89 85 90 88 87 84 82 84 82 80 81 84 84 84 85 86 90 92 93 95 99 100 105
84 84 85 86 88 90 92 95 99 99 102 104 107 111 111 111 109 105 106 106 105 102 96 95 88 85 84 85 88 92 90 90 90 94 97 99 98 100 103 106 109 110 112
83 84 85 86 87 88 90 94 96 99 103 105 104 106 111 116 115 114 114 111 111 112 105 98 93 92 95 98 98 97 97 99 102 103 104 102 105 107 109 113 113 113 108
82 84 85 85 87 88 92 92 91 93 97 99 101 105 106 108 113 117 120 120 121 118 117 115 114 113 114 114 113 112 112 112 113 114 112 113 116 116 117 116 111 104 99
78 81 84 86 87 87 87 91 94 96 97 99 100 102 104 107 110 111 114 117 119 122 122 123 123 122 123 121 121 122 123 122 122 122 119 119 117 113 112 106 101 97 91
71 75 79 84 87 89 90 91 92 94 98 99 100 102 104 106 109 112 114 115 116 115 114 115 116 117 118 120 121 121 121 121 118 114 112 110 106 101 99 99 93 91 87
67 70 73 76 81 86 89 92 94 96 98 99 100 103 105 107 108 109 111 112 112 112 112 112 112 112 112 113 113 115 114 112 110 107 106 104 98 99 94 96 92 91 89
67 70 73 75 76 79 82 86 88 90 92 94 96 97 99 101 104 106 108 108 108 108 107 107 106 106 106 109 107 107 109 107 107 102 96 94 92 97 96 92 85 83 85
67 69 71 73 75 76 79 82 84 86 86 88 89 89 89 91 92 94 94 97 100 100 99 100 100 98 96 95 99 98 97 95 95 93 88 88 88 89 86 83 82 81 77
65 68 68 69 71 73 73 75 77 79 81 83 84 84 86 84 83 83 82 83 84 84 86 87 88 88 85 87 88 88 85 85 83 82 79 79 79 78 76 76 72 69 70
66 65 65 66 65 67 67 69 71 73 75 77 77 77 77 76 76 77 76 78 77 77 77 76 76 76 77 80 79 78 76 76 76 74 71 72 71 69 66 64 63 66 68
62 61 59 58 60 61 63 64 64 67 68 70 71 70 70 69 69 69 67 68 69 71 71 71 72 72 72 75 75 71 69 70 66 66 66 66 65 62 63 59 63 66 70
56 55 54 54 56 57 57 58 59 60 63 64 63 64 65 64 63 63 63 63 63 64 65 67 68 67 67 68 69 66 62 61 62 62 58 59 59 59 59 60 63 68 62
46 46 45 47 49 50 51 53 54 54 56 57 58 59 59 59 59 59 59 60 59 60 62 63 63 61 61 62 61 60 58 57 56 56 55 55 57 59 58 58 58 61 67
40 40 42 43 45 46 45 45 47 45 46 47 48 49 50 51 54 55 55 57 57 58 58 58 58 56 56 55 55 54 53 52 51 50 49 49 48 48 49 54 61 65 69
37 38 38 39 40 40 41 42 42 40 41 41 40 41 42 43 44 45 45 46 49 50 50 50 51 49 50 50 48 49 49 45 45 46 48 45 46 50 56 58 63 62 61
34 33 34 36 36 36 36 38 40 39 38 37 37 38 38 38 37 38 40 40 41 42 43 43 43 43 43 44 45 44 44 44 48 44 43 47 51 54 58 58 57 52 50
28 30 32 33 34 34 36 37 37 37 36 35 36 37 38 37 36 36 37 36 37 37 38 39 39 41 43 43 43 43 43 40 40 44 49 51 54 53 53 54 48 48 49
Wind_Direction
220 219 219 221 221 220 219 214 214 225 232 237 237 238 238 241 246 250 252 254 256 257 257 256 257 260 264 267 270 273 274 278 279 282 286 287 290 290 290 294 298 300 303
219 219 218 219 221 220 216 216 213 213 227 232 235 237 235 239 245 252 255 255 256 258 260 262 262 264 265 267 270 273 274 276 279 282 284 286 286 287 290 295 298 301 305
219 219 219 220 221 221 219 220 218 215 216 226 228 231 235 238 240 244 249 252 256 257 260 261 261 262 265 266 267 268 272 275 278 279 281 283 284 287 294 297 301 303 303
221 219 222 220 221 221 220 220 219 219 220 224 221 226 234 237 240 242 243 246 250 253 255 257 257 257 259 263 266 268 271 275 275 278 280 282 287 293 297 300 301 302 304
221 222 222 222 221 222 222 223 219 220 219 219 228 224 230 234 238 241 244 243 250 252 254 255 259 258 258 260 264 265 267 270 273 276 279 285 287 290 295 296 300 301 300
220 221 218 220 219 221 223 224 223 221 223 223 230 228 229 234 239 243 241 245 250 254 255 258 260 261 262 262 263 265 267 268 274 276 279 284 288 292 296 295 295 295 297
220 220 221 219 220 221 223 224 225 225 225 227 229 230 232 233 236 239 239 245 243 249 251 257 258 260 265 263 264 269 268 268 272 278 281 288 291 290 291 293 291 292 294
221 223 224 222 223 223 225 225 227 227 228 229 230 232 233 236 238 240 241 240 245 247 250 250 253 258 261 264 267 270 271 273 278 280 282 283 285 287 288 288 288 290 293
221 225 223 225 225 224 227 228 229 230 230 231 232 234 234 238 240 241 239 242 244 246 247 250 253 256 258 261 265 269 270 272 275 276 279 282 283 283 285 287 288 290 293
221 224 226 228 228 228 225 229 230 231 233 233 234 234 236 237 238 242 245 246 248 250 251 250 252 256 259 262 263 267 268 268 271 273 277 279 281 281 284 286 288 292 292
225 226 228 228 231 230 230 230 231 233 235 236 237 238 237 239 241 242 244 246 247 248 249 249 251 254 257 261 264 264 266 268 272 274 275 276 278 281 284 286 289 291 294
227 228 230 232 233 233 234 233 234 236 236 239 241 240 240 242 243 245 245 246 248 250 252 254 256 258 259 260 262 264 266 267 268 271 274 276 279 282 284 286 288 290 291
228 230 233 234 234 235 237 239 239 238 237 238 238 240 242 242 244 246 247 248 250 252 254 255 256 257 259 261 263 265 267 270 272 274 276 277 279 282 283 285 286 288 288
229 231 233 235 238 239 239 240 241 242 244 244 242 243 243 244 245 246 248 249 250 252 254 255 257 259 261 262 264 266 267 268 271 273 275 277 278 279 282 285 286 287 289
229 231 232 234 235 237 240 242 243 244 245 245 245 247 248 248 247 248 249 250 252 254 256 257 258 260 262 263 265 266 268 270 272 274 274 275 277 279 284 284 285 286 291
228 230 233 234 236 238 239 242 244 245 246 247 248 249 250 250 251 253 254 255 255 254 255 257 257 257 259 261 264 265 266 268 268 270 272 273 279 279 283 285 284 286 290
230 231 233 235 237 239 241 243 245 247 250 252 252 253 253 253 253 253 253 253 255 256 257 259 259 259 259 262 263 264 265 267 268 268 271 275 278 279 281 280 283 288 287
233 236 237 238 239 241 244 246 247 248 249 250 252 253 255 257 258 259 258 258 258 258 258 257 256 256 258 261 263 264 267 269 268 268 270 274 276 277 278 281 283 281 282
236 237 240 243 245 246 247 248 248 250 252 253 254 254 256 257 258 259 259 259 259 259 259 258 258 258 259 260 262 264 266 267 268 270 271 273 275 278 280 277 279 280 282
240 243 245 246 248 249 250 251 252 252 254 255 257 258 259 259 259 258 258 257 256 255 256 257 257 258 259 261 261 264 265 265 268 270 271 273 277 276 275 277 275 280 284
244 246 247 247 249 250 252 253 253 254 254 255 256 257 257 257 256 256 255 254 253 254 254 255 256 257 258 260 261 262 264 265 268 270 272 272 272 272 274 276 278 282 288
251 251 250 248 248 251 252 253 253 254 256 257 258 257 256 256 255 254 254 253 253 253 254 254 256 257 257 258 261 263 265 266 267 267 269 269 271 272 275 276 279 285 287
247 245 245 247 249 250 252 256 257 255 257 259 258 258 258 256 254 253 253 254 252 253 254 254 255 257 259 260 261 263 262 263 264 265 264 268 270 272 276 280 281 284 288
241 241 241 243 247 250 249 251 255 255 253 255 257 256 255 254 253 251 252 253 252 253 254 255 257 257 257 258 258 257 260 259 260 260 262 267 274 276 278 280 283 290 293
242 242 242 243 244 247 251 251 251 254 253 253 253 254 251 250 247 248 249 249 249 250 251 253 254 255 255 253 252 254 256 253 256 262 266 270 272 274 279 285 289 289 291
243 242 244 245 247 249 253 250 251 253 254 251 250 248 247 245 241 240 240 242 244 245 245 245 245 245 248 248 245 250 250 255 261 263 266 268 275 280 284 287 286 291 294